Vertical_Velocity
2 -1 2 -1 1 0 -1 -0 -1 -0 -1 -1 -1 -1 -2 -2 -1 -1 -1 -2 -2 -2 -2 -1 -1 -0 -0 -1 -0 -1 -1 -1 -1 -0 -2 -1 -1 -1 -0 1 -2 -1 -1
0 -0 3 -2 -0 1 1 1 -0 -1 -1 -2 -0 -0 -1 -2 -2 -2 -1 -1 -1 -2 -0 -1 -2 -1 -1 -0 -2 -1 1 -0 -0 1 0 -1 -3 -3 -1 0 -1 -2 -0
1 0 2 -1 0 1 1 -0 1 2 1 -1 -0 -2 -0 -0 -1 -1 -1 -1 -2 -1 -1 -2 -1 -1 -2 -1 -0 -3 -2 -0 -1 -2 -2 1 2 0 -1 -1 1 -1 0
-0 1 3 -0 -1 1 1 1 0 1 1 1 -0 0 -1 -1 1 0 1 1 -0 -2 -1 -1 -1 -2 -0 -1 1 0 -1 -1 -0 -0 -0 0 -0 -1 -2 -1 0 0 -1
-0 -1 1 0 -1 -1 0 -0 -1 -0 0 -1 0 -1 -1 -3 -2 -0 -2 -1 2 1 -1 -3 -1 -0 -2 -2 -1 -2 -2 -1 0 -0 -0 -0 -1 -1 -1 -1 -1 0 1
-0 -1 -1 -3 -4 -3 -1 -1 0 -2 -1 0 -1 -1 -1 1 -2 -2 -1 -2 -7 -3 -0 -0 -0 -1 -0 -1 -1 -1 -1 -3 -1 -1 0 1 2 2 -2 -0 -0 -2 0
-1 -2 1 1 -1 -1 -0 0 -2 2 -1 -2 -0 -1 -1 1 -4 -0 -5 -0 1 -1 -1 -3 -2 -1 -2 -2 -1 -2 -2 -0 -1 -2 1 -1 1 1 1 -2 -3 0 3
1 -2 -4 -2 -2 -3 -3 1 1 -1 1 -1 -2 -2 0 1 -3 -2 0 -1 -1 -1 -3 -1 -2 -0 -1 1 -1 -1 -1 -1 -2 -2 -3 -3 -2 -0 2 0 0 -0 -3
3 4 4 1 1 -1 1 -4 2 -0 -2 3 -2 -2 -2 -0 -1 -3 -1 -0 1 0 -1 -1 -3 -2 -2 -0 0 -1 -2 -3 -1 0 1 0 -0 -2 -2 2 -0 -1 0
4 2 2 4 4 -4 -2 1 -4 -0 -0 2 4 -1 1 -1 -0 0 -3 2 -3 1 -2 -2 -3 -1 -1 -1 -1 -1 -0 -3 -0 -0 2 0 1 -2 -2 -0 1 0 -1
2 0 4 3 3 -2 -1 1 8 0 -1 1 1 0 2 2 1 -2 2 8 5 -2 -2 -4 -3 -2 -2 -1 -1 1 1 -3 -2 -2 -0 -0 -2 -0 1 -5 -3 -4 -1
3 0 -2 -11 6 -5 -1 -4 2 -6 1 -1 -1 -0 -1 -4 0 -2 -8 -2 -3 4 5 6 4 0 -1 -1 -3 -3 -2 -2 0 -3 1 -1 -2 1 -0 -3 -2 -1 -2
1 -0 3 1 2 -2 1 -2 -3 0 -1 -5 -1 -2 -1 -0 -0 -0 -4 -3 -8 0 -0 -1 -4 -2 -2 -1 1 -1 -0 -2 0 -0 -4 -0 0 -4 -0 3 -2 -3 -2
-8 -9 -4 1 2 -4 2 1 -2 0 -4 -1 2 -2 -2 -1 -2 -4 -4 -6 -2 2 0 -3 7 -5 -4 -2 -3 -3 -1 -2 -4 -3 -1 0 -3 1 -4 -3 -1 -1 -1
-20 3 9 -1 -3 -1 -1 -0 1 -2 0 2 -1 -1 -3 2 0 -3 -3 -4 -6 -8 -3 2 -5 0 0 1 -2 -6 -4 -2 -2 2 -0 -3 1 0 2 -1 -4 -4 -3
-0 4 4 -4 2 -2 3 -1 1 -1 -0 2 -1 -2 -3 -1 0 1 -2 -3 -4 -7 -12 -3 0 -3 -2 -4 -4 -3 -6 -3 -3 -0 -2 0 2 -0 -2 -2 0 1 -2
-2 -3 -15 5 1 4 -3 1 -1 -0 -1 1 -0 1 -3 -1 3 -2 -1 -3 -2 -6 -8 3 -2 -1 1 -2 -2 -2 -1 -1 2 -5 -9 -3 -2 -1 1 -0 -1 -3 -1
-0 -3 -14 1 -2 4 -3 1 1 2 1 0 -0 -4 -4 -1 -0 -3 -1 -0 -2 -2 -9 -4 -2 1 -2 -1 -4 -2 -1 -1 -5 -3 -2 -2 -4 -2 -1 -1 -1 -1 0
-2 -0 5 -0 4 -7 -1 4 -0 1 -1 -1 -0 -2 -1 1 2 1 -0 1 -1 -1 -4 -7 -4 -0 -2 0 -1 -3 -0 0 -2 -1 -1 -0 -1 -4 -2 -3 -3 -2 -2
6 10 0 -1 -5 -2 -1 0 1 0 -1 1 -4 -3 -1 -0 -3 -2 -2 -1 -1 -0 -0 -2 -1 -2 -3 3 -4 -7 -1 -2 -1 1 2 -1 -4 -0 -0 -3 -4 -1 -4
7 1 -4 -5 -2 3 -1 -4 -1 -1 -1 1 -0 -2 -3 -1 -5 -2 -5 1 2 -0 -2 -2 -2 -3 -0 0 -3 -3 -8 -6 -1 -4 -3 0 -4 2 5 0 -2 -1 -4
-4 -5 -1 -1 1 -4 -6 -2 -2 2 -1 -1 -3 1 -3 -2 0 -1 2 -1 -4 -5 -1 -3 -2 -3 0 -2 -3 -3 -4 -7 -17 11 -5 -3 2 1 0 1 -1 -2 -3
-0 -1 -0 -4 -3 -4 -3 -1 2 -1 -3 -3 -3 -2 1 1 -1 -2 -2 -0 2 1 -3 -4 -3 3 -5 0 -2 -4 -2 -6 -1 7 -2 -20 7 -3 -5 -2 -1 -3 -4
-1 -1 -7 -1 2 -2 -0 -2 2 -1 -3 -2 -4 -1 -2 0 -2 -4 -4 -1 2 1 5 4 2 1 2 2 -1 -1 -4 -7 -3 0 -1 -26 4 -3 -1 6 4 -3 -1
-1 -4 2 1 -4 4 -9 4 -2 -8 -1 1 -1 -2 2 -1 6 -3 -4 -2 1 1 3 2 1 -1 -3 -1 3 -5 0 -7 -6 3 8 -10 2 -13 -6 3 1 -4 -2
-3 -1 -0 -2 -2 -3 0 -0 -4 -7 -1 -4 4 -2 1 -3 -1 -1 -3 -3 -7 0 -0 2 6 4 -0 0 2 1 -1 -7 -1 -11 9 -11 1 -9 -19 9 3 1 -1
Height
3150 3151 3152 3153 3153 3154 3154 3154 3154 3153 3153 3152 3151 3149 3148 3147 3146 3145 3143 3142 3140 3139 3137 3135 3133 3132 3130 3128 3126 3124 3123 3121 3119 3118 3116 3114 3111 3109 3107 3105 3102 3099 3098
3149 3150 3151 3151 3152 3152 3152 3152 3152 3152 3151 3150 3149 3148 3147 3146 3145 3143 3142 3140 3138 3136 3135 3133 3131 3130 3128 3127 3124 3122 3121 3119 3116 3115 3113 3111 3109 3107 3105 3102 3100 3097 3095
3146 3147 3148 3149 3149 3150 3150 3149 3149 3149 3149 3148 3147 3147 3145 3144 3143 3141 3140 3138 3137 3135 3133 3131 3129 3128 3125 3123 3122 3120 3118 3116 3114 3112 3110 3109 3107 3105 3102 3099 3097 3094 3091
3143 3144 3145 3146 3146 3147 3147 3147 3147 3146 3146 3145 3144 3144 3144 3142 3141 3140 3138 3136 3135 3133 3131 3129 3127 3125 3123 3121 3119 3118 3115 3113 3111 3109 3107 3105 3103 3101 3100 3097 3094 3092 3089
3140 3141 3142 3142 3143 3144 3144 3144 3144 3144 3143 3142 3142 3141 3140 3139 3138 3137 3135 3133 3132 3131 3129 3127 3125 3123 3121 3119 3116 3115 3113 3111 3108 3106 3104 3102 3099 3097 3095 3093 3091 3089 3086
3136 3138 3139 3140 3141 3142 3142 3141 3141 3141 3141 3140 3139 3138 3137 3136 3135 3134 3132 3131 3129 3128 3126 3124 3122 3120 3118 3114 3112 3111 3109 3107 3104 3102 3100 3097 3096 3094 3092 3089 3087 3085 3084
3133 3134 3136 3136 3137 3139 3139 3139 3137 3137 3138 3137 3136 3135 3134 3133 3131 3131 3129 3128 3126 3124 3123 3120 3118 3116 3114 3111 3109 3107 3105 3103 3101 3098 3095 3094 3092 3090 3088 3086 3084 3082 3079
3129 3131 3133 3134 3134 3135 3135 3135 3135 3134 3133 3132 3132 3131 3131 3130 3128 3127 3126 3124 3122 3120 3118 3115 3113 3111 3108 3106 3103 3101 3099 3096 3094 3092 3091 3088 3086 3083 3082 3081 3080 3078 3075
3126 3127 3128 3128 3129 3130 3131 3131 3131 3131 3130 3129 3128 3128 3127 3126 3124 3123 3121 3120 3118 3115 3113 3110 3107 3105 3102 3099 3097 3095 3093 3091 3088 3086 3084 3082 3080 3078 3075 3074 3073 3072 3071
3122 3123 3124 3125 3124 3124 3127 3126 3126 3126 3126 3124 3123 3122 3122 3121 3119 3118 3116 3114 3113 3110 3107 3104 3101 3097 3096 3094 3091 3089 3087 3084 3082 3080 3077 3075 3073 3071 3070 3067 3065 3064 3061
3117 3119 3120 3120 3120 3120 3121 3120 3121 3121 3121 3120 3118 3117 3116 3114 3113 3112 3111 3110 3108 3105 3102 3099 3095 3093 3090 3087 3085 3081 3079 3077 3075 3073 3070 3067 3065 3063 3062 3060 3058 3056 3054
3111 3113 3114 3114 3115 3116 3116 3117 3117 3116 3116 3115 3114 3112 3110 3108 3105 3102 3103 3102 3100 3099 3095 3092 3088 3086 3083 3080 3077 3073 3070 3068 3065 3064 3061 3059 3057 3054 3053 3052 3050 3048 3047
3103 3106 3107 3110 3111 3110 3111 3111 3111 3110 3110 3109 3108 3106 3103 3101 3099 3095 3091 3090 3090 3091 3089 3087 3082 3078 3075 3072 3069 3065 3062 3058 3056 3053 3051 3048 3045 3043 3042 3041 3039 3037 3035
3094 3097 3103 3105 3105 3105 3105 3105 3105 3105 3104 3103 3100 3098 3096 3093 3090 3086 3083 3080 3076 3073 3072 3074 3077 3073 3068 3064 3060 3056 3053 3049 3044 3041 3039 3038 3034 3030 3028 3027 3026 3025 3025
3093 3094 3098 3098 3099 3100 3100 3100 3099 3098 3097 3096 3094 3092 3089 3086 3082 3078 3074 3070 3066 3060 3058 3059 3056 3053 3051 3051 3050 3045 3042 3037 3033 3030 3026 3022 3019 3018 3015 3012 3010 3009 3009
3087 3092 3093 3094 3094 3094 3094 3093 3092 3092 3091 3089 3087 3085 3082 3079 3075 3070 3066 3063 3059 3054 3047 3046 3044 3040 3036 3033 3030 3028 3027 3024 3020 3017 3012 3007 3005 3002 3000 2998 2996 2993 2991
3085 3088 3089 3089 3090 3089 3089 3088 3087 3085 3083 3081 3079 3077 3073 3071 3068 3063 3059 3055 3052 3046 3041 3039 3035 3031 3026 3020 3016 3012 3008 3005 3004 3004 3000 2996 2991 2987 2985 2984 2981 2980 2977
3079 3082 3084 3084 3084 3083 3082 3082 3080 3078 3076 3073 3071 3068 3065 3063 3058 3054 3049 3046 3042 3038 3032 3027 3023 3020 3015 3011 3006 3001 2997 2992 2987 2985 2984 2982 2980 2975 2971 2970 2968 2966 2964
3076 3076 3076 3077 3076 3077 3076 3075 3072 3070 3068 3064 3062 3060 3057 3052 3048 3044 3040 3035 3030 3025 3020 3014 3009 3006 3001 2998 2992 2989 2985 2981 2978 2975 2972 2969 2966 2964 2962 2958 2954 2952 2951
3069 3069 3070 3070 3071 3070 3069 3067 3065 3061 3059 3055 3052 3048 3046 3041 3037 3033 3028 3023 3017 3012 3007 3003 2998 2993 2989 2986 2980 2975 2972 2971 2968 2968 2964 2959 2955 2952 2950 2947 2944 2942 2939
3064 3064 3064 3065 3065 3063 3061 3059 3055 3052 3048 3046 3043 3041 3037 3032 3026 3019 3013 3007 3001 2998 2995 2991 2987 2982 2979 2975 2971 2967 2962 2958 2958 2956 2951 2949 2946 2943 2941 2937 2934 2931 2928
3059 3059 3059 3059 3058 3055 3053 3050 3046 3042 3039 3036 3033 3030 3024 3019 3014 3008 3002 2996 2992 2985 2981 2978 2974 2971 2969 2965 2962 2958 2953 2949 2946 2945 2938 2938 2934 2931 2929 2926 2924 2921 2917
3052 3053 3053 3052 3050 3046 3044 3042 3038 3032 3029 3024 3021 3016 3011 3007 3002 2996 2991 2984 2983 2979 2975 2968 2963 2962 2958 2956 2951 2949 2945 2941 2939 2935 2928 2928 2925 2922 2919 2918 2915 2912 2908
3046 3046 3044 3043 3040 3038 3035 3032 3027 3022 3018 3014 3010 3004 2999 2994 2988 2980 2977 2972 2970 2968 2967 2962 2957 2953 2950 2947 2943 2940 2936 2932 2931 2928 2923 2919 2916 2913 2911 2910 2907 2903 2900
3039 3037 3036 3033 3030 3030 3026 3023 3016 3012 3008 3003 2998 2992 2986 2979 2975 2969 2965 2959 2955 2955 2955 2951 2947 2944 2942 2939 2937 2932 2929 2925 2922 2920 2918 2912 2908 2904 2902 2901 2899 2894 2891
3031 3030 3028 3025 3022 3021 3017 3012 3006 3001 2995 2989 2983 2979 2974 2969 2962 2958 2954 2949 2944 2943 2941 2939 2937 2935 2934 2931 2928 2925 2922 2918 2915 2911 2911 2905 2903 2898 2891 2893 2890 2886 2881